Flag for Dem. Rep. Congo Weather past 2 weeks in Bukavu, Dem. Rep. Congo

61 °F

Passing clouds.

Feels Like: 61 °F
Forecast: 56 / 70 °F
Wind: 3 mph from Northwest

Location: Kigali Airport

Current Time: Nov 25, 2015 at 6:13:54 AM

Latest Report: Nov 25, 2015 at 5:30 AM

Visibility: N/A

Pressure: 30.07 "Hg (24.57 "Hg at 1710m altitude)

Humidity: 100%

Dew point: 61 °F

Location of BukavuLocation

Historic Weather in Bukavu — Graph


Bukavu temperature yesterday

Maximum temperature yesterday: 81 °F (at 11:30 AM)
Minimum temperature yesterday: 64 °F (at 12:00 AM)
Average temperature yesterday: 70 °F

Past Weeks' High & Low Weather Summary

High86 °F (Nov 11, 4:30 PM)100% (Nov 10, 5:00 AM)30.24 "Hg (Nov 10, 5:00 AM)
Low61 °F (Nov 10, 6:00 AM)45% (Nov 12, 2:00 PM)29.95 "Hg (Nov 14, 4:30 PM)
Average70 °F86%30.09 "Hg
* Reported Nov 10 5:00 AM — Nov 25 5:00 AM, Bukavu, Weather by CustomWeather, © 2015

Note: Actual official high and low records may vary slightly from our data, if they occured in-between our weather recording intervals... More about our weather records


Bukavu weather history for previous 24 hours

Time TempWeatherWind HumidityBarometerVisibility
5:00 AM
Wed, Nov 25
61 °FPassing clouds.7 mph100%30.07 "HgN/A
4:30 AM63 °FPassing clouds.6 mph100%30.07 "HgN/A
4:00 AM63 °FPassing clouds.No wind100%30.07 "HgN/A
3:30 AM63 °FPassing clouds.3 mph100%30.07 "HgN/A
2:30 AM63 °FPassing clouds.5 mph100%30.07 "HgN/A
2:00 AM63 °FPassing clouds.7 mph100%30.07 "HgN/A
1:30 AM63 °FPassing clouds.5 mph100%30.07 "HgN/A
1:00 AM64 °FPassing clouds.No wind100%30.09 "HgN/A
12:30 AM64 °FPassing clouds.No wind100%30.09 "HgN/A
12:00 AM66 °FPassing clouds.No wind94%30.09 "HgN/A
11:30 PM
Tue, Nov 24
64 °FPassing clouds.No wind100%30.12 "HgN/A
11:00 PM66 °FPassing clouds.3 mph94%30.12 "HgN/A
10:30 PM68 °FPassing clouds.3 mph88%30.12 "HgN/A
10:00 PM68 °FPassing clouds.3 mph88%30.12 "HgN/A
9:30 PM68 °FPassing clouds.No wind88%30.12 "HgN/A
9:00 PM68 °FPassing clouds.No wind88%30.12 "HgN/A
8:30 PM70 °FPassing clouds.5 mph83%30.09 "HgN/A
8:00 PM70 °FPassing clouds.5 mph83%30.09 "HgN/A
7:30 PM70 °FPassing clouds.No wind83%30.07 "HgN/A
7:00 PM70 °FPassing clouds.No wind83%30.07 "HgN/A
6:30 PM72 °FPassing clouds.3 mph78%30.04 "HgN/A
6:00 PM72 °FPassing clouds.6 mph78%30.04 "HgN/A
5:30 PM73 °FScattered clouds.5 mph78%30.04 "HgN/A
5:00 PM75 °FScattered clouds.5 mph74%30.04 "HgN/A
4:30 PM75 °FScattered clouds.5 mph78%30.01 "HgN/A
4:00 PM75 °FPartly sunny.6 mph78%30.01 "HgN/A
3:30 PM75 °FPartly sunny.7 mph78%30.01 "HgN/A
3:00 PM75 °FPartly sunny.8 mph78%30.04 "HgN/A
2:30 PM79 °FThunderstorms. Partly sunny.5 mph65%30.07 "HgN/A
2:00 PM77 °FPartly sunny.5 mph69%30.07 "HgN/A
1:30 PM75 °FPartly sunny.3 mph74%30.07 "HgN/A
1:00 PM75 °FThunderstorms. Partly sunny.9 mph74%30.09 "HgN/A
12:30 PM79 °FScattered clouds.8 mph61%30.09 "HgN/A
12:00 PM79 °FScattered clouds.3 mph65%30.09 "HgN/A
11:30 AM81 °FScattered clouds.3 mph66%30.12 "HgN/A
11:00 AM79 °FScattered clouds.3 mph65%30.12 "HgN/A
10:30 AM77 °FScattered clouds.6 mph74%30.15 "HgN/A
10:00 AM75 °FScattered clouds.7 mph78%30.15 "HgN/A
9:00 AM73 °FScattered clouds.3 mph78%30.15 "HgN/A
8:00 AM68 °FScattered clouds.5 mph100%30.15 "HgN/A
7:30 AM66 °FScattered clouds.No wind100%30.15 "Hg4 mi
7:00 AM66 °FPassing clouds.No wind100%30.15 "Hg5 mi
6:30 AM64 °FScattered clouds.No wind100%30.09 "HgN/A
6:00 AM64 °FScattered clouds.No wind100%30.12 "Hg5 mi
Weather by CustomWeather, © 2015

See weather overviewHow to use our weather pages